Dewpoint
49 44 42 42 43 43 44 44 43 42 40 39 38 37 37 36 36 38 37 38 37 36 36 36 35 34 34 35 35 35 34 31 31 32 30 28 28 29 29 30 33 35 36 41 46 50 54 56 57 58 59 59 59 58 58 57 57 57 57 57 57 57 57 57 57 57 57 57 57 57 57 57 57 57 58 57 57 57 57 57 57 57 57 57 56 56
50 43 43 44 44 44 44 44 44 41 40 39 38 37 37 37 36 38 38 39 33 35 33 36 36 36 36 37 36 35 31 31 31 30 29 28 27 27 28 28 30 33 38 40 41 48 52 54 56 57 57 57 58 59 58 58 57 57 57 57 57 57 57 57 57 57 57 57 57 57 57 57 57 57 57 57 57 57 57 57 57 57 57 57 57 56
43 42 43 44 44 45 45 44 44 41 39 39 38 38 37 37 37 38 39 33 31 35 34 34 32 33 34 35 36 35 34 34 34 33 31 29 29 29 29 29 28 29 32 35 38 42 49 52 54 56 57 57 58 59 59 59 58 57 57 57 57 57 57 57 57 57 57 58 58 58 57 58 57 58 58 58 57 57 57 56 57 57 58 58 58 57
39 42 43 45 44 44 44 44 44 43 42 39 38 37 37 38 37 36 38 30 29 33 31 32 32 33 34 34 35 35 34 34 35 34 34 33 31 31 31 31 32 31 31 31 33 37 44 50 52 55 56 56 57 58 58 59 59 58 57 57 57 57 57 57 57 57 58 58 58 58 58 58 58 57 57 57 57 57 57 57 57 57 58 58 58 58
40 46 44 44 44 44 43 44 43 43 41 41 39 37 37 37 37 37 37 31 32 32 33 32 32 33 34 34 35 35 35 35 35 35 35 36 36 35 36 36 35 32 32 32 31 34 41 47 51 53 55 56 56 57 58 58 59 59 58 58 57 57 57 57 57 57 58 58 57 57 55 55 55 54 56 56 57 57 57 57 57 56 57 58 59 59
41 45 45 44 44 44 43 42 43 42 40 40 40 40 38 39 38 38 33 32 32 34 33 32 30 31 33 35 35 36 34 32 34 34 35 35 36 37 37 37 37 38 37 34 32 32 37 44 48 52 54 55 56 56 57 58 59 59 59 59 58 58 57 57 57 57 57 57 57 57 57 56 56 56 56 56 56 57 57 57 57 57 56 57 58 59
41 45 45 43 43 43 43 42 43 42 40 39 39 41 40 40 39 39 33 36 33 33 34 32 32 31 30 32 32 33 32 33 34 33 33 34 34 34 36 38 38 38 39 39 37 35 36 42 46 50 52 54 55 56 57 57 58 59 59 59 59 58 58 58 57 58 57 57 57 57 57 57 56 56 56 57 57 57 57 57 57 57 56 56 56 58
44 44 45 45 44 43 42 42 42 42 40 39 39 42 41 40 39 38 35 37 36 34 35 29 31 31 31 33 34 34 32 32 32 32 32 32 32 32 33 34 36 37 38 39 39 38 36 38 44 47 50 53 54 55 56 57 57 58 58 59 59 59 58 58 58 58 57 57 57 57 57 57 57 57 56 56 57 56 56 57 57 57 57 56 56 56
42 42 44 43 43 43 43 43 43 42 41 37 40 42 41 41 39 37 37 35 34 35 34 30 29 28 28 30 31 33 32 33 33 34 34 34 35 35 34 34 34 35 36 37 39 39 37 36 41 45 48 51 53 55 56 56 57 58 58 58 59 59 59 59 58 58 57 57 57 57 57 57 57 57 57 56 56 56 56 56 56 56 56 56 56 56
43 43 44 44 43 42 43 44 44 42 41 40 40 42 41 39 38 38 35 35 35 35 33 34 31 30 32 30 32 29 30 32 33 34 34 35 35 35 35 36 35 35 35 37 37 37 37 36 37 43 47 50 53 54 55 56 57 57 58 58 58 59 59 59 59 58 58 57 57 57 57 57 57 57 57 56 56 56 56 56 56 56 56 57 57 56
44 46 45 44 43 43 44 44 44 43 42 42 42 40 38 33 32 34 34 33 34 34 35 37 31 32 31 32 33 32 32 32 33 33 34 34 34 34 34 34 35 35 35 36 37 37 36 36 35 39 45 48 51 54 55 55 56 57 57 58 58 58 59 59 59 59 58 58 58 57 57 57 57 57 57 57 57 57 56 57 57 57 57 57 57 57
43 44 44 45 45 46 46 42 44 46 45 43 39 38 38 34 35 35 32 34 32 32 35 37 33 33 31 31 32 34 33 32 33 33 33 33 33 33 34 33 33 33 34 35 36 36 36 35 34 38 43 47 50 53 54 55 56 56 57 57 58 58 58 59 59 59 59 59 58 58 58 58 58 58 58 57 57 57 57 57 57 57 57 57 58 58
40 42 43 44 45 44 43 42 42 44 44 43 40 40 36 31 34 30 33 31 31 31 30 34 34 31 33 33 31 31 32 33 33 32 33 33 33 33 32 32 33 34 35 35 36 36 37 35 34 36 40 45 49 52 53 54 55 56 56 57 57 57 58 58 59 59 59 59 59 59 59 59 59 59 59 58 58 58 58 58 58 58 58 58 58 58
37 42 43 43 44 45 43 40 38 39 42 42 40 37 33 30 29 28 31 33 32 33 31 32 32 33 34 34 36 35 36 35 35 34 34 33 33 32 33 33 33 34 34 35 37 37 37 36 35 35 38 43 47 50 52 54 54 55 56 56 57 57 57 58 58 59 59 59 60 60 59 59 59 59 59 59 59 59 59 59 59 59 59 58 58 58
32 32 38 43 40 45 43 41 40 40 42 42 43 41 35 32 30 25 28 27 28 28 29 31 33 30 30 32 29 35 36 36 33 32 34 35 35 35 35 35 34 34 34 35 35 36 37 37 36 36 38 41 46 49 52 53 54 55 55 56 56 56 57 57 58 58 59 59 60 60 60 60 60 60 59 60 60 60 60 59 59 59 59 59 59 59
35 34 41 44 43 45 42 42 42 41 40 42 41 41 37 33 33 27 23 28 30 28 25 27 32 32 31 32 32 31 32 31 31 31 31 30 31 32 31 32 33 33 34 35 34 35 35 36 36 36 38 41 44 47 51 53 54 55 55 56 56 56 56 57 57 57 58 58 59 59 60 60 59 59 59 59 59 60 60 60 60 60 60 60 60 60
34 33 41 44 45 44 42 43 42 42 35 39 41 37 38 38 33 27 25 26 26 25 27 23 29 31 32 32 33 34 33 32 32 31 31 31 31 30 30 30 31 33 34 35 35 35 35 34 34 35 36 40 44 47 50 52 53 54 55 55 56 56 56 56 56 57 57 58 58 59 59 60 59 59 59 59 59 59 60 60 60 60 60 60 61 60
33 33 42 42 41 44 43 43 42 41 40 41 36 40 41 39 36 32 27 21 23 22 22 28 27 28 26 27 32 32 32 31 30 29 29 30 30 29 30 30 30 31 33 34 34 34 34 34 34 34 35 37 41 46 49 51 53 54 55 55 55 55 56 56 56 57 57 57 57 58 58 59 59 60 59 60 59 59 59 60 60 60 60 60 60 59
37 32 35 42 41 43 43 44 43 42 42 40 38 44 38 33 32 32 29 24 23 23 21 24 28 27 28 26 21 28 31 31 30 28 27 27 29 29 29 30 30 29 29 29 30 31 32 33 34 35 34 35 36 40 46 49 50 52 53 54 55 55 56 56 56 57 57 57 57 57 57 58 59 59 60 60 59 59 59 59 60 60 60 60 59 57
37 32 34 40 41 41 43 43 35 40 42 42 42 42 40 38 33 32 31 28 26 23 16 19 24 23 28 27 26 20 27 31 31 30 29 29 28 29 29 31 31 31 30 29 29 30 31 32 32 33 35 35 36 36 37 40 43 49 52 52 54 54 54 54 55 56 56 57 57 57 57 57 58 58 59 59 59 59 59 59 59 59 59 59 58 58
37 35 30 35 39 42 35 41 38 39 37 38 40 38 38 35 37 38 34 32 27 24 22 19 20 22 24 29 28 27 23 26 29 30 30 30 29 30 30 30 31 31 31 30 30 29 30 31 32 34 34 35 34 34 35 37 40 45 47 50 52 53 53 53 54 55 55 56 56 56 56 57 57 57 58 58 58 58 59 59 58 59 59 58 58 57
35 34 33 32 34 36 38 42 40 39 39 38 38 37 38 37 33 31 30 32 30 26 20 17 21 24 24 29 29 29 27 24 26 29 28 27 28 28 30 30 31 31 31 31 30 31 33 35 35 35 34 34 35 36 36 36 36 39 44 48 49 49 51 52 51 52 54 53 54 55 56 56 53 55 56 57 57 57 58 58 58 58 57 57 58 56
40 36 35 33 35 38 40 41 40 41 41 38 38 36 38 37 35 32 28 31 29 30 24 21 20 25 27 28 29 29 28 27 25 26 25 25 27 29 30 30 30 30 30 30 30 33 35 35 34 34 36 37 36 37 36 36 37 38 38 40 43 47 48 48 49 49 50 51 52 53 53 52 52 53 53 55 56 56 56 56 55 54 56 56 56 54
41 36 34 34 34 37 37 38 39 40 41 40 40 37 39 37 35 33 31 31 31 30 29 26 24 27 28 28 29 29 29 28 27 26 26 27 28 29 30 30 30 29 28 29 32 32 33 31 31 33 35 36 36 36 36 36 36 37 37 37 37 40 41 41 44 45 46 48 50 50 49 50 49 49 50 51 53 53 53 53 53 53 54 55 55 55
37 34 36 32 31 32 34 34 36 37 39 39 38 38 37 37 37 34 30 28 30 31 30 28 25 27 30 29 29 28 28 29 29 29 29 29 29 30 29 29 29 29 30 31 32 32 31 31 32 35 35 36 35 34 34 35 37 36 37 35 37 37 36 38 38 41 44 45 47 46 48 48 48 49 49 50 50 51 51 50 51 50 53 54 54 55
37 36 35 30 27 25 26 27 29 32 34 38 40 38 38 37 36 34 31 31 29 30 31 29 28 29 28 27 26 27 27 28 29 29 28 29 30 30 30 30 29 30 31 30 30 31 32 32 32 32 33 35 35 35 36 36 36 36 36 37 36 37 35 35 34 40 41 40 44 45 45 46 46 48 49 49 49 49 47 47 47 49 49 50 53 52
34 36 36 34 30 27 29 31 36 38 36 35 37 38 37 38 37 36 33 31 29 30 30 30 30 29 28 26 25 25 25 27 27 28 26 27 27 28 28 29 29 29 29 29 29 31 31 31 33 34 34 35 35 34 36 36 37 35 35 35 34 35 35 35 35 36 39 39 42 44 44 45 46 46 47 47 48 46 46 46 46 47 48 47 49 50
32 33 35 35 34 33 33 33 35 38 36 38 37 37 38 37 37 35 33 31 32 30 28 30 31 30 29 29 26 25 25 26 28 28 26 25 26 29 29 28 31 28 28 30 30 31 30 31 32 33 34 34 35 35 35 35 35 36 36 36 36 35 35 35 35 36 38 39 41 43 44 45 44 44 45 44 44 44 43 42 42 45 46 45 48 49
34 32 33 35 34 35 35 32 31 34 36 36 37 38 37 37 37 35 34 34 33 30 28 30 31 30 30 30 28 26 25 25 26 26 25 26 26 26 26 26 26 27 27 28 29 29 30 30 30 32 34 35 32 33 33 33 34 34 34 34 34 34 35 34 37 39 40 40 41 42 42 42 41 41 41 41 42 42 42 41 41 41 41 42 45 46
34 32 34 35 33 33 34 34 32 30 32 35 36 36 38 37 37 36 35 35 35 34 32 31 30 30 30 30 30 28 28 26 26 26 23 22 23 26 26 26 26 26 26 26 27 28 29 30 30 32 34 34 34 34 33 34 34 35 35 36 35 36 37 34 38 39 39 40 40 40 39 40 40 41 40 41 42 41 40 40 40 40 40 40 41 41
35 31 34 32 31 32 33 33 33 33 32 31 35 37 38 38 38 37 36 36 36 36 34 33 32 31 31 31 32 32 31 30 28 25 24 23 23 25 25 26 25 25 25 25 25 26 27 29 31 32 33 34 35 35 35 36 36 34 34 35 36 37 38 37 38 39 39 39 39 38 37 39 40 40 40 39 37 36 38 39 38 39 39 39 39 40
38 33 34 33 30 29 31 31 31 33 33 32 31 33 36 37 37 37 36 36 35 34 34 34 32 31 32 33 33 33 31 30 29 28 28 26 23 23 24 25 25 25 24 24 25 25 25 27 30 32 32 33 34 35 35 36 35 34 36 36 37 37 37 37 39 40 40 40 39 39 39 39 39 39 39 38 37 36 35 35 37 38 38 38 38 37
36 35 33 33 30 29 32 32 32 33 33 31 31 34 34 36 38 39 39 38 36 36 34 32 32 33 33 34 33 33 33 32 31 31 30 29 27 24 23 24 25 25 24 25 25 25 25 25 27 30 31 32 32 34 35 36 35 36 38 37 37 37 39 38 39 40 40 40 40 40 40 39 39 39 38 37 37 35 35 35 36 36 37 37 35 35
35 35 33 34 29 30 31 32 33 31 25 26 34 37 36 35 36 37 37 38 38 37 35 35 34 34 33 33 33 32 33 33 33 33 33 30 29 29 26 25 25 25 25 26 26 25 24 25 27 29 30 31 31 32 34 36 37 38 37 36 36 39 40 40 40 40 40 40 40 39 39 38 38 38 36 36 36 35 35 36 35 34 34 34 35 35
33 33 33 33 31 29 31 32 30 24 25 37 40 39 38 38 38 38 38 38 38 41 40 38 37 36 35 35 34 34 33 33 34 34 34 34 32 30 30 28 26 26 26 27 27 25 25 25 26 28 30 31 32 33 34 35 36 35 35 36 37 39 40 40 41 40 40 39 39 38 38 38 37 37 36 35 35 35 35 35 34 34 34 35 35 35
33 32 32 31 30 30 28 29 24 24 32 36 39 40 39 39 39 39 38 39 39 39 40 39 38 37 36 36 36 34 34 34 33 33 33 34 34 33 32 31 29 28 28 29 29 28 25 24 25 27 29 31 33 34 35 35 36 35 35 35 37 38 40 41 41 41 40 39 38 38 38 37 36 36 35 35 34 35 35 35 35 35 34 34 34 34
34 31 30 30 32 27 27 29 28 30 31 32 34 35 38 36 37 37 34 37 40 40 39 38 38 38 37 37 37 37 32 32 32 34 34 33 35 35 34 32 31 30 30 30 30 30 28 25 25 26 28 31 33 34 35 36 35 36 35 36 36 37 38 39 40 40 40 39 38 38 37 37 37 36 35 34 35 35 34 34 34 34 34 34 34 34
34 31 30 29 27 30 29 26 27 28 25 28 33 35 39 38 38 39 37 33 37 39 40 39 38 37 38 37 37 35 32 31 33 34 35 35 34 35 35 35 34 33 32 32 32 30 29 27 26 27 28 30 33 34 35 35 36 36 35 35 36 37 37 38 40 40 39 39 38 37 37 37 37 36 35 35 35 35 34 34 34 34 34 35 35 34
35 35 33 31 30 30 28 25 25 24 26 30 32 34 38 38 40 39 36 33 37 38 38 39 38 37 37 37 37 35 32 32 34 35 36 35 34 33 33 33 32 32 33 33 32 31 28 28 27 27 29 31 32 34 34 34 35 35 35 35 35 36 37 38 39 39 39 38 38 38 37 37 37 36 35 35 35 35 34 34 34 33 34 34 34 34
32 32 32 30 28 28 28 27 25 28 27 31 33 34 36 40 40 37 30 30 36 37 37 38 38 38 37 37 34 35 35 34 34 35 34 35 35 34 33 33 32 32 32 32 31 30 30 28 27 28 30 31 31 34 34 34 35 35 35 35 35 36 36 37 38 38 38 38 37 37 37 37 36 36 35 35 35 35 35 34 34 34 34 34 34 34
30 30 31 27 27 28 29 27 29 29 32 31 32 34 38 40 37 31 27 31 39 38 37 37 37 38 38 36 37 35 36 36 36 35 35 35 35 35 35 34 33 33 32 31 31 30 28 29 29 28 29 30 32 33 33 34 35 34 34 34 34 35 36 36 36 37 38 37 37 36 36 36 36 35 35 35 35 34 34 34 34 34 34 33 33 33
30 30 31 30 27 25 27 26 26 28 32 31 30 37 39 37 32 31 34 36 34 37 38 37 37 37 36 36 36 36 37 37 37 34 33 34 35 35 35 35 34 34 34 33 31 31 31 30 31 31 32 32 32 33 34 34 34 34 34 33 34 35 34 35 37 37 37 37 36 36 36 35 36 36 35 34 34 34 34 34 34 34 34 33 33 33
28 28 26 27 28 29 29 26 26 23 28 33 35 35 36 33 33 37 33 34 34 34 35 35 37 37 37 36 37 38 37 37 36 36 36 35 34 34 35 35 35 34 34 35 32 31 32 32 32 32 32 32 31 32 33 34 34 34 33 34 34 34 35 36 36 36 36 36 36 35 35 35 35 35 35 34 34 34 34 33 33 33 33 33 33 33
31 26 24 27 31 24 26 25 25 28 32 35 37 34 35 36 34 31 31 31 32 31 31 33 34 36 37 36 36 36 37 37 36 36 36 36 36 36 36 35 35 35 35 35 34 32 32 32 33 33 31 31 31 32 33 34 34 33 33 34 33 34 35 36 36 36 36 35 35 35 35 35 35 34 34 34 34 34 33 33 33 33 33 33 33 33
28 27 27 23 28 28 27 30 33 33 33 35 35 33 34 35 33 32 31 31 31 31 31 30 31 32 34 36 36 36 36 36 36 36 36 36 36 36 36 36 35 35 35 35 34 32 32 33 33 33 31 31 31 32 33 34 34 33 33 33 34 34 35 35 35 35 35 35 35 35 35 34 34 34 34 34 34 34 33 33 33 33 33 33 33 32
27 27 26 23 25 28 30 30 32 31 31 32 35 35 34 34 34 33 33 32 32 32 32 31 32 31 31 32 33 33 34 35 36 36 36 36 36 36 36 37 35 35 35 33 31 31 32 32 32 32 32 31 30 31 31 33 34 33 33 32 34 35 35 35 35 35 35 35 35 34 34 34 34 34 33 33 34 33 33 33 33 33 32 32 32 32
26 29 27 25 26 26 23 30 30 29 29 31 34 35 35 34 33 32 32 32 32 32 32 31 31 31 31 30 30 31 31 32 33 34 34 34 34 34 35 35 36 35 34 33 33 31 31 31 31 31 32 32 31 31 30 30 29 30 31 32 34 34 35 35 35 35 34 34 34 34 34 34 34 33 33 33 33 33 33 33 33 32 32 32 32 31
25 27 27 28 26 27 26 27 29 31 31 31 32 32 32 32 33 32 33 33 32 32 32 32 31 31 31 30 30 30 30 30 31 32 32 32 33 33 34 35 35 34 33 33 32 31 32 32 32 32 32 33 32 31 29 27 28 29 31 33 34 34 34 34 35 35 34 34 34 34 34 34 32 33 33 33 33 33 32 32 32 32 32 32 32 31
25 28 26 27 27 28 28 29 30 29 29 31 31 32 33 34 34 34 34 34 34 34 34 34 32 31 31 31 30 29 30 30 30 31 31 31 32 33 33 33 34 34 34 31 30 30 32 32 32 32 32 32 30 30 29 28 26 30 32 33 34 34 34 34 34 34 34 34 34 34 33 33 33 33 33 32 32 32 32 32 32 32 30 28 30 32
27 26 28 27 25 26 26 26 24 23 25 26 28 31 32 33 33 33 33 33 33 33 33 33 33 33 31 31 30 30 30 30 30 30 31 31 31 31 32 33 33 31 30 29 28 28 28 27 29 29 29 27 28 29 29 27 27 29 31 33 34 34 34 34 34 34 33 34 34 33 33 33 33 32 32 31 29 28 27 28 30 30 30 27 29 30
28 27 26 26 27 25 26 28 27 28 27 28 28 30 32 33 33 33 33 33 33 33 33 32 32 32 32 32 31 30 30 30 30 30 31 31 31 32 32 32 31 29 29 28 28 27 27 25 26 27 27 26 28 28 27 26 26 27 29 32 34 34 34 34 34 33 33 32 32 32 32 32 31 31 30 29 29 28 26 25 26 29 29 29 30 30